Weather History for DeKalb, IL

Change the Weather History Date:

Sunday, March 24, 2013

  Actual Average (KARR) Record (KARR)
Temperature  
Mean Temperature 32 °F 40 °F  
Max Temperature 34 °F 51 °F 73 °F (2003)
Min Temperature 29 °F 30 °F 19 °F (2001)
Degree Days  
Heating Degree Days 34 25  
Month to date heating degree days 708  
Since 1 July heating degree days 5846  
Cooling Degree Days 0 0  
Month to date cooling degree days 0  
Year to date cooling degree days 0  
Moisture  
Dew Point 25 °F    
Average Humidity 79    
Maximum Humidity 89    
Minimum Humidity 66    
Precipitation  
Precipitation 0.00 in 0.08 in 0.72 in (2009)
Month to date precipitation 1.70  
Year to date precipitation 4.79  
Sea Level Pressure  
Sea Level Pressure 29.81 in    
Wind  
Wind Speed 14 mph (NNE)    
Max Wind Speed 23 mph    
Max Gust Speed 31 mph    
Visibility 9 miles    
Events Rain , Snow    
T = Trace of Precipitation, MM = Missing Value Source: NWS Daily Summary

Daily Weather History Graph

Daily Weather History Graph

Search for Another Location

Airport:

Trip Planner

Search our weather history database for the weather conditions in past years. The results will help you decide how hot, cold, wet, or windy it might be!

Date:

Astronomy

Mar. 24, 2013 Rise Set
Actual Time 6:50 AM CDT 7:11 PM CDT
Civil Twilight 6:22 AM CDT 7:39 PM CDT
Nautical Twilight 5:50 AM CDT 8:12 PM CDT
Astronomical Twilight 5:16 AM CDT 8:46 PM CDT
Moon 4:38 PM CDT (3/24) 5:03 AM CDT (3/24)
Length of Visible Light 13h 16m
Length of Day
12h 20m
Waxing Gibbous, 92% of the Moon is Illuminated
Mar 24
Waxing Gibbous
Mar 27
Full
Apr 2
Last Quarter
Apr 10
New
Apr 18
First Quarter

Hourly Weather History & Observations

Time (CDT) Temp. Windchill Dew Point Humidity Pressure Visibility Wind Dir Wind Speed Gust Speed Precip Events Conditions
12:15 AM 30.2 °F 23.4 °F 25.5 °F 83% 30.03 in 10.0 mi North 6.9 mph - N/A   Overcast
12:35 AM 29.8 °F 20.9 °F 25.5 °F 84% 30.02 in 10.0 mi North 10.4 mph - N/A   Mostly Cloudy
12:55 AM 30.0 °F 20.5 °F 25.5 °F 83% 30.01 in 10.0 mi North 11.5 mph - N/A   Overcast
1:15 AM 29.7 °F 20.7 °F 25.2 °F 83% 30.01 in 10.0 mi NNE 10.4 mph - N/A   Overcast
1:35 AM 29.7 °F 19.6 °F 25.2 °F 83% 30.00 in 10.0 mi NNE 12.7 mph - N/A   Overcast
1:55 AM 29.7 °F 21.3 °F 25.0 °F 83% 30.00 in 10.0 mi NNE 9.2 mph - N/A   Overcast
2:15 AM 30.2 °F 21.9 °F 24.8 °F 80% 29.99 in 10.0 mi North 9.2 mph - N/A   Overcast
2:35 AM 29.8 °F 20.3 °F 25.3 °F 83% 29.98 in 10.0 mi NNE 11.5 mph - N/A   Overcast
2:55 AM 29.7 °F 20.1 °F 24.8 °F 82% 29.98 in 10.0 mi NNE 11.5 mph - N/A   Overcast
3:15 AM 29.7 °F 19.6 °F 23.9 °F 79% 29.97 in 10.0 mi NE 12.7 mph - N/A   Overcast
3:35 AM 29.7 °F 20.1 °F 23.5 °F 78% 29.96 in 10.0 mi NE 11.5 mph - N/A   Overcast
3:55 AM 29.3 °F 18.6 °F 23.5 °F 79% 29.95 in 10.0 mi NE 13.8 mph - N/A   Overcast
4:15 AM 29.3 °F 19.1 °F 23.7 °F 80% 29.93 in 10.0 mi NE 12.7 mph - N/A   Overcast
4:35 AM 29.3 °F 17.7 °F 23.7 °F 80% 29.92 in 10.0 mi NE 16.1 mph - N/A   Overcast
4:55 AM 29.3 °F 18.6 °F 23.4 °F 78% 29.92 in 10.0 mi ENE 13.8 mph - N/A   Overcast
5:15 AM 29.3 °F 19.1 °F 23.7 °F 80% 29.90 in 10.0 mi ENE 12.7 mph 17.3 mph N/A   Overcast
5:35 AM 29.3 °F 18.6 °F 23.9 °F 80% 29.89 in 10.0 mi ENE 13.8 mph 18.4 mph N/A   Overcast
5:55 AM 29.1 °F 19.4 °F 24.8 °F 84% 29.89 in 10.0 mi NE 11.5 mph - N/A   Overcast
6:15 AM 29.3 °F 19.6 °F 25.3 °F 85% 29.89 in 10.0 mi NE 11.5 mph - N/A   Overcast
6:35 AM 29.3 °F 20.2 °F 25.5 °F 86% 29.87 in 10.0 mi NE 10.4 mph - N/A   Overcast
6:55 AM 29.7 °F 22.0 °F 25.5 °F 85% 29.88 in 10.0 mi ENE 8.1 mph - N/A   Overcast
7:15 AM 30.2 °F 21.3 °F 25.7 °F 83% 29.87 in 10.0 mi ENE 10.4 mph - N/A   Overcast
7:35 AM 30.2 °F 21.3 °F 25.3 °F 82% 29.87 in 10.0 mi East 10.4 mph - N/A   Overcast
7:55 AM 30.7 °F 20.9 °F 24.8 °F 79% 29.87 in 10.0 mi ENE 12.7 mph 17.3 mph N/A   Overcast
8:15 AM 31.1 °F 21.4 °F 25.3 °F 79% 29.87 in 10.0 mi ENE 12.7 mph - N/A   Mostly Cloudy
8:35 AM 30.9 °F 20.7 °F 24.8 °F 78% 29.87 in 10.0 mi ENE 13.8 mph - N/A   Mostly Cloudy
8:55 AM 30.9 °F 21.2 °F 24.8 °F 78% 29.86 in 10.0 mi ENE 12.7 mph - N/A   Overcast
9:15 AM 30.9 °F 20.7 °F 25.7 °F 81% 29.85 in 2.0 mi ENE 13.8 mph - N/A Snow Light Snow
9:35 AM 31.1 °F 20.5 °F 26.6 °F 83% 29.83 in 5.0 mi ENE 15.0 mph - N/A Snow Light Snow
9:55 AM 31.6 °F 19.7 °F 26.6 °F 82% 29.80 in 5.0 mi NE 19.6 mph 23.0 mph N/A Rain Light Freezing Rain
10:15 AM 32.5 °F 21.5 °F 26.8 °F 79% 29.80 in 10.0 mi ENE 17.3 mph 24.2 mph N/A   Mostly Cloudy
10:35 AM 33.1 °F 21.9 °F 25.7 °F 74% 29.80 in 10.0 mi ENE 18.4 mph 26.5 mph N/A   Mostly Cloudy
10:55 AM 32.9 °F 20.4 °F 24.4 °F 71% 29.80 in 10.0 mi ENE 23.0 mph 27.6 mph N/A   Overcast
11:15 AM 32.7 °F 21.4 °F 24.4 °F 72% 29.80 in 10.0 mi ENE 18.4 mph 24.2 mph N/A   Overcast
11:35 AM 32.9 °F 20.7 °F 24.4 °F 71% 29.78 in 10.0 mi ENE 21.9 mph 25.3 mph N/A   Overcast
11:55 AM 32.9 °F 20.7 °F 24.4 °F 71% 29.78 in 10.0 mi ENE 21.9 mph 28.8 mph N/A Rain Light Rain
12:15 PM 33.1 °F 21.5 °F 24.8 °F 72% 29.77 in 7.0 mi ENE 19.6 mph 24.2 mph N/A Rain Light Rain
12:35 PM 33.8 °F 21.9 °F 25.0 °F 70% 29.76 in 10.0 mi ENE 21.9 mph 26.5 mph N/A Rain Light Rain
12:55 PM 34.0 °F 23.0 °F 23.7 °F 66% 29.75 in 10.0 mi ENE 18.4 mph 26.5 mph N/A   Scattered Clouds
1:15 PM 34.0 °F 21.8 °F 24.1 °F 67% 29.74 in 10.0 mi NE 23.0 mph 27.6 mph N/A   Mostly Cloudy
1:35 PM 33.8 °F 22.8 °F 24.1 °F 68% 29.73 in 10.0 mi NE 18.4 mph 27.6 mph N/A   Overcast
1:55 PM 33.4 °F 21.1 °F 23.7 °F 68% 29.72 in 10.0 mi NE 23.0 mph 26.5 mph N/A   Overcast
2:15 PM 33.8 °F 21.6 °F 24.6 °F 69% 29.71 in 10.0 mi NE 23.0 mph 27.6 mph N/A   Overcast
2:35 PM 33.4 °F 21.7 °F 24.6 °F 70% 29.69 in 10.0 mi NNE 20.7 mph 28.8 mph N/A   Overcast
2:55 PM 33.6 °F 21.3 °F 25.3 °F 72% 29.68 in 10.0 mi NNE 23.0 mph 28.8 mph N/A   Overcast
3:15 PM 33.1 °F 20.9 °F 24.1 °F 70% 29.68 in 10.0 mi NE 21.9 mph 28.8 mph N/A   Overcast
3:35 PM 32.9 °F 21.6 °F 24.1 °F 70% 29.67 in 10.0 mi NE 18.4 mph - N/A   Overcast
3:55 PM 32.7 °F 21.1 °F 25.5 °F 75% 29.67 in 10.0 mi NNE 19.6 mph 25.3 mph N/A   Overcast
4:15 PM 32.5 °F 21.5 °F 25.5 °F 75% 29.68 in 10.0 mi NNE 17.3 mph 21.9 mph N/A   Overcast
4:35 PM 32.4 °F 20.3 °F 25.3 °F 75% 29.68 in 10.0 mi NNE 20.7 mph 24.2 mph N/A   Overcast
4:55 PM 32.0 °F 20.1 °F 25.2 °F 76% 29.69 in 10.0 mi NNE 19.6 mph 25.3 mph N/A   Overcast
5:15 PM 32.0 °F 20.8 °F 24.4 °F 74% 29.71 in 10.0 mi NNE 17.3 mph 23.0 mph N/A   Overcast
5:35 PM 32.0 °F 21.2 °F 25.0 °F 75% 29.72 in 10.0 mi NNE 16.1 mph - N/A   Overcast
5:55 PM 31.6 °F 21.2 °F 25.5 °F 78% 29.72 in 3.0 mi NNE 15.0 mph 25.3 mph N/A Snow Light Snow
6:15 PM 30.7 °F 19.6 °F 25.9 °F 82% 29.73 in 1.5 mi NNE 16.1 mph 21.9 mph N/A Snow Light Snow
6:35 PM 30.2 °F 18.1 °F 25.7 °F 83% 29.74 in 1.0 mi NNE 18.4 mph 25.3 mph N/A Snow Light Snow
6:55 PM 30.6 °F 19.8 °F 25.7 °F 82% 29.73 in 4.0 mi NNE 15.0 mph - N/A Snow Light Snow
7:15 PM 30.2 °F 18.5 °F 26.6 °F 86% 29.72 in 2.0 mi North 17.3 mph - N/A Snow Light Snow
7:35 PM 30.2 °F 18.5 °F 26.4 °F 86% 29.72 in 4.0 mi North 17.3 mph 24.2 mph N/A Snow Light Snow
7:55 PM 29.8 °F 19.3 °F 26.4 °F 87% 29.72 in 4.0 mi North 13.8 mph 23.0 mph N/A Snow Light Snow
8:15 PM 29.7 °F 17.1 °F 26.1 °F 86% 29.72 in 7.0 mi North 19.6 mph 24.2 mph N/A   Overcast
8:35 PM 29.3 °F 16.6 °F 26.1 °F 88% 29.72 in 10.0 mi North 19.6 mph 25.3 mph N/A   Overcast
8:55 PM 29.3 °F 16.6 °F 26.4 °F 89% 29.72 in 5.0 mi North 19.6 mph 31.1 mph N/A Snow Light Snow
9:15 PM 29.3 °F 16.6 °F 26.4 °F 89% 29.72 in 2.5 mi North 19.6 mph 25.3 mph N/A Snow Light Snow
9:35 PM 29.3 °F 16.2 °F 26.4 °F 89% 29.73 in 2.0 mi North 20.7 mph 24.2 mph N/A Snow Light Snow
9:55 PM 29.7 °F 18.2 °F 26.4 °F 88% 29.73 in 7.0 mi North 16.1 mph 27.6 mph N/A   Overcast
10:15 PM 29.7 °F 16.7 °F 25.5 °F 85% 29.74 in 10.0 mi North 20.7 mph 25.3 mph N/A   Overcast
10:35 PM 30.0 °F 16.9 °F 24.1 °F 79% 29.74 in 10.0 mi North 21.9 mph 29.9 mph N/A   Overcast
10:55 PM 29.3 °F 17.3 °F 23.4 °F 78% 29.74 in 10.0 mi North 17.3 mph 24.2 mph N/A   Overcast
11:15 PM 29.3 °F 17.0 °F 23.0 °F 77% 29.74 in 10.0 mi North 18.4 mph 24.2 mph N/A   Overcast
11:35 PM 29.3 °F 16.2 °F 23.0 °F 77% 29.73 in 10.0 mi North 20.7 mph 25.3 mph N/A   Overcast
11:55 PM 29.3 °F 17.0 °F 23.5 °F 79% 29.74 in 10.0 mi North 18.4 mph 25.3 mph N/A   Overcast